Find Starlink 11255

NORAD ID: 60730 Int'l Des: 2024-152 Owner: SPXS Country: US Constellation: starlink operational
LEOCIRCULAR

当前视图

正在加载3D地球...

About Starlink 11255

Starlink 11255 (NORAD 60730) is a starlink constellation satellite (v2 mini d2c) launched Aug 28, 2024 by SPXS of US. It operates in LEO, CIRCULAR orbit with a mass of 960.00 kg.

关于 Starlink 11255

正在加载描述...

即将过境

Passes for default location (London). Set your location on the main map for personalized predictions.

高度历史

Loading altitude history...

两行轨道根数

1 60730C 24152L 26173.83590278 .00059115 00000+0 48709-3 0 1736
2 60730 53.1562 317.6731 0001111 74.3796 258.4839 15.69672919 13
Epoch: Jun 22, 2026 • Age: 11 hours

当前状态

高度 371.5 km
速度 7.69 km/s
星下点 -35.75°S, 88.53°W
发射日期 Aug 28, 2024
运行时间 1.8 years
类型 internet

技术详情

分类 Payload
质量 960.00 kg
干质量 910.00 kg
总质量 960.00 kg
长度 0.30 m
直径 4.10 m
跨度 29.00 m
形状 Box + pan
制造商 SPXS
平台类型 Starlink V2MD
阶段状态 In Orbit
所有者/国家 SPXS/US

Most Searched